Theta_e
314 314 314 314 315 315 315 315 314 314 315 315 315 315 316 316 316 315 314 314 314 315 316 316 317 314 297 289 288 296 313 304 294 293 288 289 288 287 284 287 288 284 284 285 286 285 284
314 313 314 314 314 314 315 315 314 314 315 315 315 314 315 315 315 315 314 313 313 314 315 316 314 309 291 285 294 293 292 295 292 291 289 288 287 288 284 282 284 286 286 283 283 283 284
314 314 313 314 314 314 314 314 314 314 314 315 315 314 314 314 314 314 314 313 313 313 315 316 313 297 292 287 292 292 294 291 290 291 289 288 288 287 286 283 286 284 279 279 278 280 280
313 313 313 313 314 314 313 313 313 313 313 314 314 314 313 313 313 313 312 312 313 314 315 313 309 294 289 295 294 293 292 293 293 292 290 290 289 285 283 284 281 278 276 273 277 279 280
313 313 313 313 313 313 313 313 313 313 313 314 313 313 312 312 312 311 311 311 312 312 312 309 295 291 286 301 293 293 292 291 292 291 292 293 287 282 281 277 274 274 269 272 274 280 278
312 312 312 312 313 313 313 313 312 312 313 313 313 313 312 312 311 310 309 309 309 304 300 298 295 289 292 289 292 292 292 292 289 288 287 285 281 279 279 274 270 270 270 269 270 275 277
311 311 312 312 312 312 313 313 312 312 312 313 313 313 312 312 311 308 304 298 292 292 291 289 288 288 289 292 292 290 291 290 288 285 279 282 277 273 274 276 276 275 272 271 272 277 276
309 310 311 311 311 311 312 312 311 311 312 312 312 312 312 312 309 308 304 300 293 292 287 292 291 291 292 290 288 290 291 286 283 278 279 277 275 277 279 278 277 275 272 271 274 279 276
308 309 309 310 310 310 311 311 311 311 311 311 312 312 311 310 306 300 302 301 306 295 287 290 291 291 290 292 286 287 287 284 281 279 279 275 277 282 279 276 276 274 273 272 273 276 275
308 308 308 309 309 309 310 310 310 310 311 311 311 311 310 308 302 300 300 306 307 297 283 287 289 292 292 291 287 288 288 285 282 278 279 278 280 280 277 277 276 273 276 276 275 272 268
307 307 308 308 308 308 308 309 309 310 310 310 310 310 309 308 301 300 305 309 307 302 276 288 288 295 291 289 287 289 288 287 280 279 279 276 277 277 276 277 278 276 278 275 277 272 270
306 307 307 307 307 308 308 308 308 309 309 309 309 310 311 309 303 304 308 305 304 284 276 286 289 287 287 288 287 287 286 287 284 281 280 277 280 279 277 279 279 279 275 274 272 270 263
305 306 306 306 307 307 307 308 308 308 309 309 308 310 312 309 301 307 304 299 283 275 288 284 285 287 286 285 285 284 281 279 277 276 275 276 276 278 281 276 279 277 271 267 267 264 263
305 305 305 306 306 306 307 307 308 308 308 309 308 308 308 307 304 306 300 289 274 285 285 287 286 286 284 284 284 283 280 277 279 277 274 273 274 276 280 278 276 274 271 266 264 260 262
304 304 305 305 305 306 306 306 307 308 308 308 307 303 299 301 305 303 295 279 281 285 286 286 285 283 283 284 284 282 278 278 277 277 275 274 275 279 281 281 279 274 271 273 271 271 265
304 304 304 305 305 305 306 306 307 307 308 307 303 297 296 302 304 298 289 286 286 289 288 287 283 284 280 281 282 281 279 281 280 280 280 277 274 279 279 280 279 276 277 270 269 261 260
304 303 303 304 305 305 305 306 306 307 307 306 303 290 297 302 302 295 285 284 287 288 289 287 285 284 283 282 282 281 281 281 282 281 280 277 275 276 278 276 274 274 273 273 272 270 261
303 303 303 303 304 304 305 305 306 306 307 304 299 286 298 302 292 284 284 287 292 286 289 288 287 286 284 283 282 282 281 282 284 283 278 278 276 273 275 279 280 277 276 275 269 269 269
303 303 303 303 303 304 305 305 305 306 306 300 293 289 297 301 283 280 286 288 288 286 286 286 285 286 286 283 280 283 283 284 284 282 279 279 275 272 275 276 277 275 277 277 275 272 264
304 303 303 303 303 303 304 305 305 306 307 300 294 285 289 293 291 287 284 284 285 289 288 288 286 286 284 282 284 282 282 283 284 283 289 283 276 275 272 276 277 274 277 276 274 268 265
305 304 303 303 303 303 304 304 305 306 306 301 294 290 287 280 286 286 285 286 284 284 287 287 284 284 284 281 282 281 282 282 283 289 281 280 276 276 278 279 278 277 277 276 272 269 270
304 305 304 304 303 303 303 304 304 305 306 299 295 291 291 288 291 287 288 285 285 285 286 284 283 285 285 282 284 282 282 280 280 281 279 280 277 278 277 279 277 278 279 278 278 272 271
304 305 305 304 303 302 302 303 304 305 304 295 295 295 293 290 288 287 286 288 288 288 288 288 286 285 283 285 286 285 285 284 284 281 279 278 277 277 275 278 277 275 278 277 277 277 272
303 304 304 304 303 302 302 303 303 304 302 296 294 296 292 286 287 288 291 291 290 288 286 287 287 285 286 289 287 286 285 284 283 281 282 279 278 278 275 276 269 280 282 280 277 280 277
303 304 304 304 303 302 302 302 303 303 305 296 294 297 293 285 289 290 291 289 288 288 286 287 288 288 288 286 281 280 280 281 282 283 281 282 279 275 269 270 278 280 280 279 278 278 280
303 304 304 304 304 302 302 302 302 303 304 295 293 295 296 289 289 293 288 287 284 283 284 285 288 288 286 282 280 273 275 280 280 280 283 282 281 275 273 270 268 280 279 281 280 273 281
303 303 303 303 303 302 302 302 302 303 303 295 293 294 293 286 292 291 287 286 287 284 282 284 285 285 284 279 273 276 278 283 278 278 277 278 277 273 272 269 276 282 280 281 275 279 283
303 303 303 303 303 303 302 301 302 302 303 296 293 293 293 283 290 294 293 288 287 286 283 285 284 283 280 277 277 276 278 281 279 281 280 278 274 273 274 269 271 282 279 278 283 281 282
302 303 303 303 303 303 302 301 301 302 303 299 291 294 295 289 289 293 293 292 292 292 286 284 285 283 283 278 276 277 279 278 280 278 280 277 280 277 278 278 283 283 284 284 284 284 282
Wind_Speed
13 13 13 13 13 12 12 12 11 10 10 10 9 9 8 8 8 9 9 10 10 11 13 14 12 9 9 16 6 9 18 23 9 12 10 6 11 8 10 12 27 21 11 13 16 17 14
13 13 13 13 12 12 12 12 12 11 11 10 10 10 9 9 9 10 9 10 10 10 10 12 16 5 7 26 7 10 10 17 19 14 13 10 8 15 11 4 9 8 15 9 6 8 6
14 13 13 13 13 13 13 12 12 12 12 11 10 10 10 10 10 10 11 10 11 8 8 8 7 7 24 8 2 8 11 9 6 11 15 6 4 12 9 20 14 13 12 7 5 3 4
15 14 14 13 13 13 13 13 12 12 12 10 10 10 10 10 10 10 12 12 9 8 8 8 9 9 11 2 1 7 8 9 11 13 8 10 10 14 8 7 8 5 6 5 5 6 1
15 15 14 14 13 13 12 13 12 13 12 11 11 11 10 9 10 12 12 10 9 9 8 3 11 9 6 7 8 8 8 4 7 9 19 11 9 8 7 7 6 9 3 4 5 5 2
15 15 15 15 14 14 13 13 13 13 12 11 10 10 10 10 10 11 8 4 7 10 8 4 5 8 8 5 4 7 5 10 9 6 16 18 11 8 9 7 2 2 2 2 3 5 7
16 16 16 16 15 14 14 14 13 12 12 12 11 10 10 10 12 10 7 6 9 11 12 7 2 7 2 6 4 8 5 9 10 12 10 15 14 8 5 5 5 5 3 2 3 6 3
16 16 16 16 16 15 14 14 14 13 12 11 10 10 10 10 10 9 6 7 2 5 6 5 4 5 2 2 8 17 9 10 11 7 4 7 13 3 4 4 5 5 3 4 3 5 4
16 17 17 17 16 16 15 14 14 13 12 12 11 11 10 9 3 8 5 4 4 3 7 4 3 4 2 6 6 9 5 4 8 11 11 9 2 4 3 5 5 4 3 3 4 3 3
16 17 17 17 17 16 16 15 14 13 12 12 11 11 11 7 11 2 3 6 4 2 7 9 6 5 5 3 5 2 3 5 6 5 5 7 2 4 6 5 3 4 2 3 2 3 2
17 17 18 18 18 17 15 15 14 13 11 10 10 10 8 8 6 4 4 6 2 5 6 4 4 2 4 7 0 10 5 10 6 3 3 1 2 4 7 2 3 3 3 2 3 4 3
17 17 18 18 18 18 16 15 14 13 11 10 9 8 2 6 4 2 6 5 5 10 3 2 2 2 4 5 4 4 8 9 4 5 7 3 0 1 2 1 2 3 4 6 5 3 4
17 18 18 19 19 18 17 16 14 13 11 11 9 7 6 2 1 6 3 6 8 8 2 1 0 2 4 5 5 5 5 8 5 4 7 2 0 1 1 2 5 9 6 4 5 5 6
17 18 18 19 20 19 19 17 15 13 11 10 8 5 5 3 4 3 4 8 8 3 3 1 2 2 3 3 4 4 3 4 6 5 3 4 4 1 1 2 2 5 3 6 4 3 7
17 18 18 19 20 20 19 19 17 14 13 10 4 4 3 5 5 3 7 6 8 5 1 3 2 2 2 1 3 4 3 2 0 2 2 2 3 1 1 2 5 1 5 2 2 1 2
18 18 18 19 19 20 19 19 18 16 14 8 3 3 3 8 5 6 7 4 4 3 1 2 3 2 2 1 2 2 1 2 2 1 2 3 3 0 2 3 5 2 6 3 4 3 6
17 18 18 19 19 19 20 20 19 18 15 5 4 5 4 7 3 7 4 4 3 1 2 2 5 2 1 2 3 2 3 3 4 3 1 3 2 1 2 3 7 2 1 5 4 4 4
16 17 18 18 19 20 20 20 20 18 15 7 3 3 4 3 6 2 4 4 2 1 3 2 3 2 4 4 2 2 3 1 4 4 2 1 4 4 7 1 4 4 5 5 5 3 2
15 16 17 18 18 18 19 20 19 17 12 3 3 1 3 4 4 2 3 2 2 2 1 2 2 1 1 3 1 2 3 3 4 3 4 4 1 5 1 2 3 3 4 4 5 4 6
13 15 16 18 18 18 18 19 19 17 10 3 4 3 6 5 1 7 4 3 3 1 2 3 3 3 2 2 1 4 3 2 2 2 6 4 3 6 7 7 4 4 5 5 6 4 4
11 13 14 16 17 17 18 19 20 20 5 3 3 3 3 3 4 3 3 5 4 4 1 2 1 4 5 4 2 3 3 2 2 6 3 4 3 4 7 11 5 8 8 9 10 7 7
10 11 12 14 16 17 18 19 20 20 8 4 4 4 3 1 2 5 2 7 8 3 6 4 4 5 5 5 7 6 6 4 6 1 4 1 3 2 5 2 2 7 10 11 14 4 12
9 10 10 12 14 17 18 18 19 20 7 3 1 2 5 1 2 4 5 6 8 6 3 4 6 5 4 6 4 2 3 3 7 9 7 5 1 3 6 5 7 6 7 7 5 6 8
8 9 10 11 13 16 17 17 17 18 10 2 1 3 5 3 3 6 3 6 7 7 6 2 4 5 3 5 5 5 5 5 7 3 4 6 4 2 5 7 4 5 3 5 7 8 12
8 8 9 10 11 13 14 15 16 16 15 3 1 3 3 2 2 3 4 4 4 3 3 4 2 1 4 5 4 3 4 2 2 4 4 2 5 1 1 2 10 4 3 7 7 9 8
8 8 8 8 8 10 12 13 15 15 15 3 1 1 3 5 5 2 3 4 5 3 2 2 3 2 6 4 4 4 4 4 3 2 4 5 4 5 1 1 6 6 3 4 4 7 8
8 9 9 8 7 7 10 12 13 14 15 2 0 1 4 3 3 2 3 5 6 4 3 1 4 2 3 3 3 4 4 4 4 6 6 4 2 6 3 5 12 8 6 5 4 9 7
9 9 9 9 7 7 7 10 13 13 14 2 1 2 4 3 5 3 1 4 2 3 6 5 5 2 3 2 4 4 3 5 2 4 7 9 8 6 4 1 11 9 5 9 10 3 5
10 10 9 9 8 7 6 7 10 13 13 4 2 1 1 3 5 2 3 1 3 5 7 2 3 5 6 5 1 3 2 1 4 4 1 5 10 9 13 13 4 17 9 15 4 5 6
Wind_Direction
45 40 36 34 33 32 31 30 30 28 27 31 31 29 24 15 4 5 4 5 8 7 6 5 15 24 47 61 47 300 322 12 352 25 49 77 62 91 82 98 78 87 97 89 103 95 89
44 42 39 37 34 33 32 29 29 28 26 27 28 24 12 11 10 4 3 8 4 9 8 14 8 39 74 72 319 329 320 27 19 31 36 31 85 92 77 110 73 124 109 109 75 86 70
41 40 39 36 35 33 30 28 29 29 25 22 24 20 15 10 6 3 355 1 360 355 0 26 30 78 64 97 211 324 16 43 351 29 58 27 127 89 121 87 102 111 89 82 27 134 133
40 37 37 35 33 34 31 29 28 27 25 21 22 19 14 7 3 349 352 3 8 12 39 54 48 58 89 8 260 350 343 359 23 37 66 48 68 95 70 99 42 55 61 51 343 6 9
39 35 34 33 31 31 31 28 26 25 23 20 18 13 7 359 357 352 350 349 23 45 38 13 39 85 44 347 21 328 17 13 330 16 39 43 56 75 40 80 47 15 85 24 350 30 328
40 35 32 31 29 26 26 25 23 25 23 18 14 8 2 355 353 347 358 25 352 37 359 30 75 50 1 336 327 332 354 36 42 342 24 24 47 65 42 52 88 16 29 303 263 328 32
36 35 31 29 27 24 19 20 17 18 22 21 11 8 3 357 359 356 27 19 20 5 29 85 302 95 10 298 50 1 353 17 25 45 67 25 67 91 91 58 108 136 144 164 302 320 119
32 32 30 29 25 23 18 14 11 11 14 21 18 5 2 1 357 21 67 73 126 173 61 36 54 52 56 80 26 2 37 68 34 78 71 54 55 72 145 122 104 64 67 356 304 341 90
32 28 28 26 25 21 18 11 8 5 8 9 15 5 354 353 31 38 68 59 317 96 90 12 52 54 348 57 55 328 61 107 79 65 57 85 142 56 112 38 42 46 83 275 229 345 64
30 29 25 24 22 21 16 11 5 3 3 3 6 5 349 335 45 304 40 329 344 132 76 330 350 1 12 105 66 321 5 128 51 121 94 80 12 54 41 61 33 8 294 264 145 58 321
28 26 25 21 20 18 16 11 5 359 358 358 1 4 18 60 151 61 299 324 312 55 62 330 356 309 17 81 277 354 358 31 87 31 108 229 38 31 46 5 324 281 357 38 80 93 26
27 25 23 21 17 15 13 11 4 359 351 353 357 354 28 24 47 346 320 329 47 43 45 25 45 13 47 22 34 351 29 38 129 73 41 121 310 88 167 131 23 311 46 43 51 69 11
25 23 22 19 17 14 12 9 6 359 351 343 350 13 53 75 157 325 350 41 38 91 326 311 10 52 71 22 35 47 37 16 50 38 23 16 252 325 112 354 8 26 45 351 358 8 234
24 21 19 18 15 13 10 8 5 359 351 345 345 51 1 59 326 3 55 52 73 219 212 165 86 84 68 23 32 43 56 24 23 56 70 40 348 156 174 86 105 32 85 130 275 292 281
25 20 16 17 16 12 10 6 4 2 352 344 12 9 31 334 341 55 73 62 198 203 240 145 87 90 19 54 120 87 60 132 149 63 75 34 285 84 150 106 111 347 51 190 93 31 335
21 20 16 13 14 11 9 6 3 1 358 348 79 53 342 317 338 62 72 192 170 215 186 156 182 174 186 222 134 97 179 186 165 78 135 182 324 151 133 101 40 83 159 51 19 13 308
16 19 15 12 12 10 9 7 5 358 358 346 56 59 270 335 36 49 127 217 226 215 186 154 190 157 146 171 145 165 175 181 177 164 97 123 109 294 76 189 178 77 98 62 127 135 176
15 15 15 12 10 9 7 8 5 359 351 47 95 53 301 12 53 7 139 189 147 152 41 51 93 103 170 165 141 148 196 175 140 148 119 185 144 266 221 118 166 163 175 145 120 217 207
11 12 14 12 9 7 6 5 4 0 6 105 86 176 322 75 123 306 278 127 131 131 149 118 131 109 125 167 111 143 140 10 119 113 169 176 15 333 53 45 352 216 195 138 98 83 209
4 8 12 10 8 6 4 5 1 357 347 86 93 38 335 44 46 136 153 201 171 38 124 108 127 99 109 154 75 183 154 180 135 108 112 100 165 188 200 217 146 208 196 182 148 143 208
357 359 3 7 5 4 5 5 2 359 11 86 44 238 189 253 298 146 132 156 155 187 115 145 76 195 168 164 169 204 118 126 53 144 79 116 254 196 256 261 237 245 228 192 195 189 190
352 353 357 3 5 4 3 5 6 3 352 76 132 133 20 104 75 113 147 212 179 186 150 224 187 186 182 175 187 199 147 191 199 92 147 47 262 350 283 68 105 268 249 214 224 204 259
341 345 352 1 5 8 4 3 8 7 5 92 340 351 104 311 99 109 221 200 208 149 225 181 181 131 189 227 175 136 161 123 160 154 179 156 176 27 274 338 314 306 237 179 193 188 170
324 337 345 358 6 6 4 2 5 12 32 111 174 105 87 261 165 206 217 192 184 205 164 155 132 143 163 94 92 75 74 88 140 154 139 144 141 124 283 339 353 251 191 182 203 235 206
303 320 334 345 360 1 359 0 1 8 14 84 135 105 123 240 207 271 194 142 94 82 82 135 53 57 123 64 67 22 346 12 190 196 184 132 124 107 122 248 287 271 190 174 169 281 200
283 299 313 329 346 357 354 360 359 1 11 86 71 157 108 114 252 5 139 167 157 139 69 74 46 60 65 83 84 157 227 218 197 115 65 88 79 121 137 207 243 239 168 136 98 289 215
267 285 299 312 330 350 352 352 357 357 8 71 127 126 95 122 261 148 184 186 127 101 122 140 167 106 42 110 113 174 242 188 207 186 170 151 186 194 153 251 280 234 146 150 101 237 192
255 269 284 295 310 327 355 352 348 355 1 54 205 351 114 144 270 197 198 139 101 136 147 188 65 326 52 135 146 214 178 220 222 188 178 171 154 197 156 183 281 142 80 170 213 218 198
243 256 268 281 292 307 332 353 348 352 359 8 85 6 28 125 227 309 282 236 213 187 136 190 182 161 179 93 265 101 204 165 183 248 162 223 192 181 187 213 211 194 204 214 177 188 202